Hazard, Kentucky, United States (41701)
Lat: 37.25N, Lon: 83.19W
Wx Zone: KYZ115
Local Info
Past Weather Observations for Saturday, March 28, 2015

NOTE: This archive is for the closest National Weather Service station to Hazard. Information may differ from the station used for current weather conditions.

Click here for Long-term Archive

Time Weather Temperature Dewpoint Humidity Pressure Winds Precip Visibility
23:53
Clear
27°F / -3°C 10°F / -12°C 50% 30.33 in
(1027 mb)
Calm - 10SM
22:53
Clear
28°F / -2°C 10°F / -12°C 47% 30.33 in
(1027 mb)
Variable 3.5 mph
(Variable 6 kph)
- 10SM
21:53
Clear
28°F / -2°C 10°F / -12°C 47% 30.3 in
(1026 mb)
NE 3.5 mph
(NE 6 kph)
- 10SM
20:53
Clear
28°F / -2°C 10°F / -12°C 47% 30.3 in
(1026 mb)
NE 4.6 mph
(NE 7 kph)
- 10SM
19:53
Clear
30°F / -1°C 10°F / -12°C 43% 30.27 in
(1025 mb)
Variable 3.5 mph
(Variable 6 kph)
- 10SM
18:53
Clear
32°F / 0°C 9°F / -13°C 37% 30.24 in
(1024 mb)
NNE 3.5 mph
(NNE 6 kph)
- 10SM
17:53
Clear
36°F / 2°C 9°F / -13°C 32% 30.24 in
(1024 mb)
NNE 8.1 mph
(NNE 13 kph)
- 10SM
16:53
Clear
37°F / 3°C 10°F / -12°C 33% 30.21 in
(1023 mb)
Variable 4.6 mph
(Variable 7 kph)
- 10SM
15:53
Clear
37°F / 3°C 10°F / -12°C 33% 30.18 in
(1022 mb)
Variable 4.6 mph
(Variable 7 kph)
- 10SM
14:53
Clear
37°F / 3°C 10°F / -12°C 33% 30.18 in
(1022 mb)
NW 10.4 mph
(NW 17 kph)
- 10SM
13:53
Clear
36°F / 2°C 9°F / -13°C 32% 30.18 in
(1022 mb)
NNW 8.1 mph
(NNW 13 kph)
- 10SM
12:53
Clear
36°F / 2°C 10°F / -12°C 35% 30.18 in
(1022 mb)
Variable 4.6 mph
(Variable 7 kph)
- 10SM
11:53
Clear
34°F / 1°C 10°F / -12°C 38% 30.18 in
(1022 mb)
Variable 4.6 mph
(Variable 7 kph)
- 10SM
10:53
Clear
30°F / -1°C 9°F / -13°C 40% 30.18 in
(1022 mb)
Variable 3.5 mph
(Variable 6 kph)
- 10SM
09:53
Partly Cloudy
30°F / -1°C 12°F / -11°C 47% 30.18 in
(1022 mb)
Variable 4.6 mph
(Variable 7 kph)
0.00 in
(0.00 mm)
10SM
08:53
Mostly Cloudy
Light Snow
27°F / -3°C 14°F / -10°C 59% 30.18 in
(1022 mb)
Variable 3.5 mph
(Variable 6 kph)
0.00 in
(0.00 mm)
3SM
08:30
Mostly Cloudy
28°F / -2°C 18°F / -8°C 64% 30.18 in
(1022 mb)
Variable 3.5 mph
(Variable 6 kph)
- 10SM
07:53
Overcast
25°F / -4°C 16°F / -9°C 69% 30.15 in
(1021 mb)
Variable 4.6 mph
(Variable 7 kph)
0.00 in
(0.00 mm)
10SM
07:18
Overcast
Light Snow
25°F / -4°C 18°F / -8°C 74% 30.15 in
(1021 mb)
Variable 3.5 mph
(Variable 6 kph)
0.00 in
(0.00 mm)
5SM
06:53
Overcast
Light Snow
25°F / -4°C 16°F / -9°C 69% 30.12 in
(1020 mb)
Variable 3.5 mph
(Variable 6 kph)
0.00 in
(0.00 mm)
5SM
05:53
Overcast
25°F / -4°C 14°F / -10°C 63% 30.09 in
(1019 mb)
NW 5.8 mph
(NW 9 kph)
- 10SM
04:53
Overcast
25°F / -4°C 16°F / -9°C 69% 30.06 in
(1018 mb)
NNW 4.6 mph
(NNW 7 kph)
- 10SM
03:53
Overcast
25°F / -4°C 18°F / -8°C 74% 30.06 in
(1018 mb)
Calm 0.00 in
(0.00 mm)
10SM
03:21
Overcast
Light Snow
25°F / -4°C 18°F / -8°C 74% 30.06 in
(1018 mb)
Calm 0.00 in
(0.00 mm)
7SM
03:14
Overcast
Light Snow
25°F / -4°C 18°F / -8°C 74% 30.06 in
(1018 mb)
Variable 5.8 mph
(Variable 9 kph)
0.00 in
(0.00 mm)
2 1/2SM
02:53
Overcast
27°F / -3°C 14°F / -10°C 59% 30.04 in
(1017 mb)
NW 10.4 mph
(NW 17 kph)
0.00 in
(0.00 mm)
9SM
01:53
Mostly Cloudy
27°F / -3°C 12°F / -11°C 54% 30.04 in
(1017 mb)
Variable 4.6 mph
(Variable 7 kph)
- 10SM
00:53
Overcast
28°F / -2°C 14°F / -10°C 55% 30.04 in
(1017 mb)
Variable 4.6 mph
(Variable 7 kph)
- 10SM
Time Weather Temperature Dewpoint Humidity Pressure Winds Precip Visibility


Weather for websites

WeatherForYou.com, LLC is not responsible for any damages or problems caused by this service. Current weather conditions are obtained from the closest station including government and personal stations which may have varying degrees of accuracy. Weather forecasts are derived from the NOAA NDFD. Like all things, this site belongs to Jesus Christ... He just trusts me to maintain it. If you have any questions or comments email webmaster@weatherforyou.com

Copyright © 2015, WeatherForYou.com LLC. All rights reserved.